This is the latest recevied weather packets stored in our database for station/object KC5DAQ-29. If no packets are shown the sender has not sent any weather packets the latest 10 day(s).
| Time | Temp. | Humidity | Pressure | Rain* | Wind** | Luminosity | Snow |
|---|---|---|---|---|---|---|---|
| 1777920325 | 27.22° C | 100% | 1011.2 hPa | 0 mm | - | 911 W/m² | - |
| 1777920261 | 27.22° C | 100% | 1011.3 hPa | 0 mm | - | 911 W/m² | - |
| 1777920200 | 27.22° C | 100% | 1011.3 hPa | 0 mm | - | 911 W/m² | - |
| 1777920136 | 27.22° C | 100% | 1011.3 hPa | 0 mm | - | 814 W/m² | - |
| 1777920064 | 26.67° C | 100% | 1011.4 hPa | 0 mm | - | 436 W/m² | - |
| 1777920005 | 26.67° C | 100% | 1011.3 hPa | 0 mm | - | 397 W/m² | - |
| 1777919942 | 26.67° C | 100% | 1011.4 hPa | 0 mm | - | 383 W/m² | - |
| 1777919882 | 26.67° C | 100% | 1011.3 hPa | 0 mm | - | 396 W/m² | - |
| 1777919822 | 26.67° C | 100% | 1011.2 hPa | 0 mm | - | 461 W/m² | - |
| 1777919764 | 26.67° C | 100% | 1011.3 hPa | 0 mm | - | 461 W/m² | - |
| 1777919704 | 26.67° C | 100% | 1011.2 hPa | 0 mm | - | 1422 W/m² | - |
| 1777919643 | 26.67° C | 100% | 1011.3 hPa | 0 mm | - | 1422 W/m² | - |
| 1777919584 | 26.67° C | 100% | 1011.3 hPa | 0 mm | - | - | - |
| 1777919523 | 27.22° C | 100% | 1011.3 hPa | 0 mm | - | - | - |
| 1777919464 | 27.22° C | 100% | 1011.4 hPa | 0 mm | - | - | - |
| 1777919404 | 27.22° C | 100% | 1011.3 hPa | 0 mm | - | - | - |
| 1777919344 | 27.22° C | 100% | 1011.4 hPa | 0 mm | - | - | - |
| 1777919283 | 27.22° C | 100% | 1011.4 hPa | 0 mm | - | - | - |
| 1777919224 | 27.22° C | 100% | 1011.3 hPa | 0 mm | - | 380 W/m² | - |
| 1777919163 | 27.22° C | 100% | 1011.3 hPa | 0 mm | - | 380 W/m² | - |
| 1777919103 | 27.22° C | 100% | 1011.5 hPa | 0 mm | - | 380 W/m² | - |
| 1777919043 | 27.22° C | 99% | 1011.4 hPa | 0 mm | - | 380 W/m² | - |
| 1777918984 | 27.78° C | 100% | 1011.5 hPa | 0 mm | - | 380 W/m² | - |
| 1777918923 | 27.78° C | 100% | 1011.6 hPa | 0 mm | - | 380 W/m² | - |
| 1777918864 | 27.22° C | 98% | 1011.5 hPa | 0 mm | - | 380 W/m² | - |
* Rain latest hour (hover to see other rain measurements)
** Current wind speed in m/s (hover to see current wind gust speed)